Year,Month,Day,Hour,Minute,Value (Times are PST for temperature in C)
2019,07,03,13,39,27.60
2019,07,03,13,40,26.70
2019,07,03,13,41,25.40
2019,07,03,13,42,24.20
2019,07,03,13,43,23.10
2019,07,03,13,44,22.20
2019,07,03,13,45,21.50
2019,07,03,13,46,20.90
2019,07,03,13,47,20.40
2019,07,03,13,48,20.10
2019,07,03,13,49,19.80
2019,07,03,13,50,19.50
2019,07,03,13,51,19.20
2019,07,03,13,52,19.10
2019,07,03,13,53,18.90
2019,07,03,13,54,18.80
2019,07,03,13,55,18.80
2019,07,03,13,56,18.70
2019,07,03,13,57,18.70
2019,07,03,13,58,18.60
2019,07,03,13,59,18.60
2019,07,03,14,00,18.60
2019,07,03,14,01,18.60
2019,07,03,14,02,18.60
2019,07,03,14,03,18.60
2019,07,03,14,04,18.60
2019,07,03,14,05,18.70
2019,07,03,14,06,18.70
2019,07,03,14,07,18.80
2019,07,03,14,08,18.80
2019,07,03,14,09,18.80
2019,07,03,14,10,18.80
2019,07,03,14,11,18.80
2019,07,03,14,12,18.80
2019,07,03,14,13,18.90
2019,07,03,14,14,18.90
2019,07,03,14,15,19.00
2019,07,03,14,16,19.00
2019,07,03,14,17,19.10
2019,07,03,14,18,19.10
2019,07,03,14,19,19.10
2019,07,03,14,20,19.00
2019,07,03,14,21,18.90
2019,07,03,14,22,18.90
2019,07,03,14,23,18.90
2019,07,03,14,24,18.90
2019,07,03,14,25,18.90
2019,07,03,14,26,18.90
2019,07,03,14,27,18.90
2019,07,03,14,28,18.90
2019,07,03,14,29,19.00
2019,07,03,14,30,19.00
2019,07,03,14,31,19.00
2019,07,03,14,32,19.00
2019,07,03,14,33,19.00
2019,07,03,14,34,19.10
2019,07,03,14,35,19.20
2019,07,03,14,36,19.20
2019,07,03,14,37,19.30
2019,07,03,14,38,19.40
2019,07,03,14,39,19.40
2019,07,03,14,40,19.40
2019,07,03,14,41,19.40
2019,07,03,14,42,19.40
2019,07,03,14,43,19.40
2019,07,03,14,44,19.40
2019,07,03,14,45,19.40
2019,07,03,14,46,19.40
2019,07,03,14,47,19.50
2019,07,03,14,48,19.50
2019,07,03,14,49,19.50
2019,07,03,14,50,19.60
2019,07,03,14,51,19.60
2019,07,03,14,52,19.60
2019,07,03,14,53,19.60
2019,07,03,14,54,19.70
2019,07,03,14,55,19.70
2019,07,03,14,56,19.70
2019,07,03,14,57,19.70
2019,07,03,14,58,19.70
2019,07,03,14,59,19.70
2019,07,03,15,00,19.80
2019,07,03,15,01,19.80
2019,07,03,15,02,19.90
2019,07,03,15,03,19.90
2019,07,03,15,04,20.00
2019,07,03,15,05,20.00
2019,07,03,15,06,20.10
2019,07,03,15,07,20.10
2019,07,03,15,08,20.10
2019,07,03,15,09,20.20
2019,07,03,15,10,20.20
2019,07,03,15,11,20.20
2019,07,03,15,12,20.20
2019,07,03,15,13,20.20
2019,07,03,15,14,20.10
2019,07,03,15,15,20.10
2019,07,03,15,16,20.10
2019,07,03,15,17,20.10
2019,07,03,15,18,20.10
2019,07,03,15,19,20.10
2019,07,03,15,20,20.10
2019,07,03,15,21,20.10
2019,07,03,15,22,20.10
2019,07,03,15,23,20.20
2019,07,03,15,24,20.20
2019,07,03,15,25,20.30
2019,07,03,15,26,20.40
2019,07,03,15,27,20.40
2019,07,03,15,28,20.40
2019,07,03,15,29,20.40
2019,07,03,15,30,20.40
2019,07,03,15,31,20.30
2019,07,03,15,32,20.30
2019,07,03,15,33,20.20
2019,07,03,15,34,20.20
2019,07,03,15,35,20.30
2019,07,03,15,36,20.30
2019,07,03,15,37,20.30
2019,07,03,15,38,20.40
2019,07,03,15,39,20.40
2019,07,03,15,40,20.40
2019,07,03,15,41,20.40
2019,07,03,15,42,20.40
2019,07,03,15,43,20.50
2019,07,03,15,44,20.50
2019,07,03,15,45,20.60
2019,07,03,15,46,20.60
2019,07,03,15,47,20.70
2019,07,03,15,48,20.70
2019,07,03,15,49,20.80
2019,07,03,15,50,20.80
2019,07,03,15,51,20.70
2019,07,03,15,52,20.70
2019,07,03,15,53,20.70
2019,07,03,15,54,20.80
2019,07,03,15,55,20.80
2019,07,03,15,56,20.80
2019,07,03,15,57,20.80
2019,07,03,15,58,20.70
2019,07,03,15,59,20.70
2019,07,03,16,00,20.80
2019,07,03,16,01,20.80
2019,07,03,16,02,20.90
2019,07,03,16,03,21.00
2019,07,03,16,04,21.10
2019,07,03,16,05,21.10
2019,07,03,16,06,21.20
2019,07,03,16,07,21.20
2019,07,03,16,08,21.20
2019,07,03,16,09,21.20
2019,07,03,16,10,21.20
2019,07,03,16,11,21.20
2019,07,03,16,12,21.20
2019,07,03,16,13,21.20
2019,07,03,16,14,21.20
2019,07,03,16,15,21.20
2019,07,03,16,16,21.10
2019,07,03,16,17,21.00
2019,07,03,16,18,21.00
2019,07,03,16,19,20.90
2019,07,03,16,20,20.80
2019,07,03,16,21,20.80
2019,07,03,16,22,20.80
2019,07,03,16,23,20.80
2019,07,03,16,24,20.80
2019,07,03,16,25,20.80
2019,07,03,16,26,20.90
2019,07,03,16,27,20.90
2019,07,03,16,28,20.90
2019,07,03,16,29,20.90
2019,07,03,16,30,20.90
2019,07,03,16,31,20.80
2019,07,03,16,32,20.80
2019,07,03,16,33,20.80
2019,07,03,16,34,20.80
2019,07,03,16,35,20.80
2019,07,03,16,36,20.70
2019,07,03,16,37,20.70
2019,07,03,16,38,20.70
2019,07,03,16,39,20.80
2019,07,03,16,40,20.80
2019,07,03,16,41,20.80
2019,07,03,16,42,20.70
2019,07,03,16,43,20.70
2019,07,03,16,44,20.60
2019,07,03,16,45,20.50
2019,07,03,16,46,20.40
2019,07,03,16,47,20.30
2019,07,03,16,48,20.30
2019,07,03,16,49,20.20
2019,07,03,16,50,20.20
2019,07,03,16,51,20.20
2019,07,03,16,52,20.20
2019,07,03,16,53,20.20
2019,07,03,16,54,20.10
2019,07,03,16,55,20.10
2019,07,03,16,56,20.00
2019,07,03,16,57,19.90
2019,07,03,16,58,19.90
2019,07,03,16,59,19.90
2019,07,03,17,00,20.00
2019,07,03,17,01,20.00
2019,07,03,17,02,20.00
2019,07,03,17,03,20.10
2019,07,03,17,04,20.10
2019,07,03,17,05,20.10
2019,07,03,17,06,20.20
2019,07,03,17,07,20.10
2019,07,03,17,08,20.10
2019,07,03,17,09,20.10
2019,07,03,17,10,20.10
2019,07,03,17,11,20.10
2019,07,03,17,12,20.10
2019,07,03,17,13,20.10
2019,07,03,17,14,20.10
2019,07,03,17,15,20.00
2019,07,03,17,16,20.00
2019,07,03,17,17,20.00
2019,07,03,17,18,19.90
2019,07,03,17,19,19.90
2019,07,03,17,20,19.90
2019,07,03,17,21,19.90
2019,07,03,17,22,19.90
2019,07,03,17,23,19.90
2019,07,03,17,24,19.90
2019,07,03,17,25,19.90
2019,07,03,17,26,19.90
2019,07,03,17,27,19.90
2019,07,03,17,28,19.90
2019,07,03,17,29,19.90
2019,07,03,17,30,19.90
2019,07,03,17,31,19.90
2019,07,03,17,32,19.90
2019,07,03,17,33,19.90
2019,07,03,17,34,19.90
2019,07,03,17,35,20.00
2019,07,03,17,36,20.10
2019,07,03,17,37,20.10
2019,07,03,17,38,20.10
2019,07,03,17,39,20.20
2019,07,03,17,40,20.30
2019,07,03,17,41,20.40
2019,07,03,17,42,20.40
2019,07,03,17,43,20.40
2019,07,03,17,44,20.40
2019,07,03,17,45,20.40
2019,07,03,17,46,20.30
2019,07,03,17,47,20.30
2019,07,03,17,48,20.20
2019,07,03,17,49,20.20
2019,07,03,17,50,20.20
2019,07,03,17,51,20.30
2019,07,03,17,52,20.30
2019,07,03,17,53,20.40
2019,07,03,17,54,20.30
2019,07,03,17,55,20.30
2019,07,03,17,56,20.40
2019,07,03,17,57,20.40
2019,07,03,17,58,20.40
2019,07,03,17,59,20.40
2019,07,03,18,00,20.40
2019,07,03,18,01,20.40
2019,07,03,18,02,20.40
2019,07,03,18,03,20.40
2019,07,03,18,04,20.30
2019,07,03,18,05,20.30
2019,07,03,18,06,20.30
2019,07,03,18,07,20.30
2019,07,03,18,08,20.40
2019,07,03,18,09,20.40
2019,07,03,18,10,20.40
2019,07,03,18,11,20.50
2019,07,03,18,12,20.50
2019,07,03,18,13,20.60
2019,07,03,18,14,20.60
2019,07,03,18,15,20.70
2019,07,03,18,16,20.70
2019,07,03,18,17,20.80
2019,07,03,18,18,20.80
2019,07,03,18,19,20.80
2019,07,03,18,20,20.80
2019,07,03,18,21,20.80
2019,07,03,18,22,20.80
2019,07,03,18,23,20.80
2019,07,03,18,24,20.80
2019,07,03,18,25,20.80
2019,07,03,18,26,20.80
2019,07,03,18,27,20.80
2019,07,03,18,28,20.80
2019,07,03,18,29,20.80
2019,07,03,18,30,20.70
2019,07,03,18,31,20.70
2019,07,03,18,32,20.70
2019,07,03,18,33,20.70
2019,07,03,18,34,20.70
2019,07,03,18,35,20.70
2019,07,03,18,36,20.70
2019,07,03,18,37,20.60
2019,07,03,18,38,20.60
2019,07,03,18,39,20.60
2019,07,03,18,40,20.60
2019,07,03,18,41,20.60
2019,07,03,18,42,20.60
2019,07,03,18,43,20.70
2019,07,03,18,44,20.70
2019,07,03,18,45,20.70
2019,07,03,18,46,20.80
2019,07,03,18,47,20.80
2019,07,03,18,48,20.80
2019,07,03,18,49,20.80
2019,07,03,18,50,20.80
2019,07,03,18,51,20.80
2019,07,03,18,52,20.80
2019,07,03,18,53,20.80
2019,07,03,18,54,20.80
2019,07,03,18,55,20.80
2019,07,03,18,56,20.80
2019,07,03,18,57,20.70
2019,07,03,18,58,20.70
2019,07,03,18,59,20.60
2019,07,03,19,00,20.50
2019,07,03,19,01,20.50
2019,07,03,19,02,20.40
2019,07,03,19,03,20.30
2019,07,03,19,04,20.20
2019,07,03,19,05,20.10
2019,07,03,19,06,20.00
2019,07,03,19,07,20.00
2019,07,03,19,08,19.90
2019,07,03,19,09,19.80
2019,07,03,19,10,19.80
2019,07,03,19,11,19.80
2019,07,03,19,12,19.70
2019,07,03,19,13,19.70
2019,07,03,19,14,19.60
2019,07,03,19,15,19.50
2019,07,03,19,16,19.50
2019,07,03,19,17,19.40
2019,07,03,19,18,19.40
2019,07,03,19,19,19.40
2019,07,03,19,20,19.40
2019,07,03,19,21,19.30
2019,07,03,19,22,19.30
2019,07,03,19,23,19.30
2019,07,03,19,24,19.30
2019,07,03,19,25,19.20
2019,07,03,19,26,19.20
2019,07,03,19,27,19.10
2019,07,03,19,28,19.10
2019,07,03,19,29,19.10
2019,07,03,19,30,19.00
2019,07,03,19,31,19.00
2019,07,03,19,32,19.00
2019,07,03,19,33,18.90
2019,07,03,19,34,18.90
2019,07,03,19,35,18.90
2019,07,03,19,36,18.90
2019,07,03,19,37,18.90
2019,07,03,19,38,18.90
2019,07,03,19,39,18.90
2019,07,03,19,40,18.90
2019,07,03,19,41,18.90
2019,07,03,19,42,18.90
2019,07,03,19,43,18.90
2019,07,03,19,44,18.90
2019,07,03,19,45,18.90
2019,07,03,19,46,18.90
2019,07,03,19,47,18.90
2019,07,03,19,48,18.90
2019,07,03,19,49,18.90
2019,07,03,19,50,19.00
2019,07,03,19,51,19.00
2019,07,03,19,52,19.00
2019,07,03,19,53,19.00
2019,07,03,19,54,19.00
2019,07,03,19,55,19.00
2019,07,03,19,56,19.00
2019,07,03,19,57,19.00
2019,07,03,19,58,19.00
2019,07,03,19,59,19.00
2019,07,03,20,00,19.00
2019,07,03,20,01,19.00
2019,07,03,20,02,19.00
2019,07,03,20,03,19.00
2019,07,03,20,04,19.00
2019,07,03,20,05,19.00
2019,07,03,20,06,19.00
2019,07,03,20,07,19.00
2019,07,03,20,08,19.00
2019,07,03,20,09,18.90
2019,07,03,20,10,18.90
2019,07,03,20,11,18.90
2019,07,03,20,12,18.90
2019,07,03,20,13,18.90
2019,07,03,20,14,18.90
2019,07,03,20,15,18.80
2019,07,03,20,16,18.80
2019,07,03,20,17,18.80
2019,07,03,20,18,18.80
2019,07,03,20,19,18.80
2019,07,03,20,20,18.70
2019,07,03,20,21,18.70
2019,07,03,20,22,18.70
2019,07,03,20,23,18.60
2019,07,03,20,24,18.60
2019,07,03,20,25,18.60
2019,07,03,20,26,18.60
2019,07,03,20,27,18.50
2019,07,03,20,28,18.50
2019,07,03,20,29,18.50
2019,07,03,20,30,18.50
2019,07,03,20,31,18.40
2019,07,03,20,32,18.40
2019,07,03,20,33,18.40
2019,07,03,20,34,18.40
2019,07,03,20,35,18.30
2019,07,03,20,36,18.30
2019,07,03,20,37,18.30
2019,07,03,20,38,18.30
2019,07,03,20,39,18.30
2019,07,03,20,40,18.30
2019,07,03,20,41,18.30
2019,07,03,20,42,18.20
2019,07,03,20,43,18.20
2019,07,03,20,44,18.20
2019,07,03,20,45,18.20
2019,07,03,20,46,18.20
2019,07,03,20,47,18.20
2019,07,03,20,48,18.20
2019,07,03,20,49,18.20
2019,07,03,20,50,18.20
2019,07,03,20,51,18.20
2019,07,03,20,52,18.20
2019,07,03,20,53,18.20
2019,07,03,20,54,18.20
2019,07,03,20,55,18.20
2019,07,03,20,56,18.20
2019,07,03,20,57,18.20
2019,07,03,20,58,18.20
2019,07,03,20,59,18.10
2019,07,03,21,00,18.10
2019,07,03,21,01,18.10
2019,07,03,21,02,18.10
2019,07,03,21,03,18.10
2019,07,03,21,04,18.10
2019,07,03,21,05,18.10
2019,07,03,21,06,18.00
2019,07,03,21,07,18.00
2019,07,03,21,08,18.00
2019,07,03,21,09,18.00
2019,07,03,21,10,18.00
2019,07,03,21,11,18.00
2019,07,03,21,12,18.00
2019,07,03,21,13,18.00
2019,07,03,21,14,18.00
2019,07,03,21,15,17.90
2019,07,03,21,16,18.00
2019,07,03,21,17,18.00
2019,07,03,21,18,18.00
2019,07,03,21,19,17.90
2019,07,03,21,20,17.90
2019,07,03,21,21,18.00
2019,07,03,21,22,18.00
2019,07,03,21,23,18.00
2019,07,03,21,24,18.00
2019,07,03,21,25,18.00
2019,07,03,21,26,18.00
2019,07,03,21,27,18.00
2019,07,03,21,28,18.00
2019,07,03,21,29,18.00
2019,07,03,21,30,18.00
2019,07,03,21,31,18.00
2019,07,03,21,32,17.90
2019,07,03,21,33,17.90
2019,07,03,21,34,17.90
2019,07,03,21,35,17.90
2019,07,03,21,36,17.90
2019,07,03,21,37,17.90
2019,07,03,21,38,17.90
2019,07,03,21,39,17.80
2019,07,03,21,40,17.80
2019,07,03,21,41,17.80
2019,07,03,21,42,17.80
2019,07,03,21,43,17.80
2019,07,03,21,44,17.80
2019,07,03,21,45,17.70
2019,07,03,21,46,17.70
2019,07,03,21,47,17.70
2019,07,03,21,48,17.70
2019,07,03,21,49,17.70
2019,07,03,21,50,17.70
2019,07,03,21,51,17.70
2019,07,03,21,52,17.70
2019,07,03,21,53,17.70
2019,07,03,21,54,17.70
2019,07,03,21,55,17.60
2019,07,03,21,56,17.60
2019,07,03,21,57,17.60
2019,07,03,21,58,17.60
2019,07,03,21,59,17.60
2019,07,03,22,00,17.60
2019,07,03,22,01,17.60
2019,07,03,22,02,17.60
2019,07,03,22,03,17.60
2019,07,03,22,04,17.60
2019,07,03,22,05,17.60
2019,07,03,22,06,17.60
2019,07,03,22,07,17.60
2019,07,03,22,08,17.50
2019,07,03,22,09,17.50
2019,07,03,22,10,17.50
2019,07,03,22,11,17.50
2019,07,03,22,12,17.50
2019,07,03,22,13,17.60
2019,07,03,22,14,17.50
2019,07,03,22,15,17.50
2019,07,03,22,16,17.50
2019,07,03,22,17,17.50
2019,07,03,22,18,17.50
2019,07,03,22,19,17.50
2019,07,03,22,20,17.50
2019,07,03,22,21,17.60
2019,07,03,22,22,17.60
2019,07,03,22,23,17.60
2019,07,03,22,24,17.60
2019,07,03,22,25,17.50
2019,07,03,22,26,17.50
2019,07,03,22,27,17.50
2019,07,03,22,28,17.50
2019,07,03,22,29,17.50
2019,07,03,22,30,17.50
2019,07,03,22,31,17.50
2019,07,03,22,32,17.50
2019,07,03,22,33,17.50
2019,07,03,22,34,17.60
2019,07,03,22,35,17.60
2019,07,03,22,36,17.60
2019,07,03,22,37,17.60
2019,07,03,22,38,17.60
2019,07,03,22,39,17.60
2019,07,03,22,40,17.60
2019,07,03,22,41,17.60
2019,07,03,22,42,17.70
2019,07,03,22,43,17.70
2019,07,03,22,44,17.70
2019,07,03,22,45,17.70
2019,07,03,22,46,17.70
2019,07,03,22,47,17.70
2019,07,03,22,48,17.70
2019,07,03,22,49,17.70
2019,07,03,22,50,17.70
2019,07,03,22,51,17.70
2019,07,03,22,52,17.70
2019,07,03,22,53,17.70
2019,07,03,22,54,17.70
2019,07,03,22,55,17.70
2019,07,03,22,56,17.80
2019,07,03,22,57,17.70
2019,07,03,22,58,17.80
2019,07,03,22,59,17.80
2019,07,03,23,00,17.80
2019,07,03,23,01,17.80
2019,07,03,23,02,17.80
2019,07,03,23,03,17.80
2019,07,03,23,04,17.80
2019,07,03,23,05,17.80
2019,07,03,23,06,17.90
2019,07,03,23,07,17.90
2019,07,03,23,08,17.90
2019,07,03,23,09,17.90
2019,07,03,23,10,17.90
2019,07,03,23,11,17.90
2019,07,03,23,12,17.90
2019,07,03,23,13,17.90
2019,07,03,23,14,17.90
2019,07,03,23,15,17.90
2019,07,03,23,16,17.90
2019,07,03,23,17,17.90
2019,07,03,23,18,17.90
2019,07,03,23,19,18.00
2019,07,03,23,20,18.00
2019,07,03,23,21,18.00
2019,07,03,23,22,17.90
2019,07,03,23,23,17.90
2019,07,03,23,24,17.90
2019,07,03,23,25,17.90
2019,07,03,23,26,17.90
2019,07,03,23,27,17.90
2019,07,03,23,28,17.90
2019,07,03,23,29,17.90
2019,07,03,23,30,18.00
2019,07,03,23,31,17.90
2019,07,03,23,32,17.90
2019,07,03,23,33,17.90
2019,07,03,23,34,17.90
2019,07,03,23,35,17.90
2019,07,03,23,36,17.90
2019,07,03,23,37,17.90
2019,07,03,23,38,17.90
2019,07,03,23,39,17.90
2019,07,03,23,40,17.90
2019,07,03,23,41,17.90
2019,07,03,23,42,17.90
2019,07,03,23,43,17.90
2019,07,03,23,44,17.90
2019,07,03,23,45,17.90
2019,07,03,23,46,17.90
2019,07,03,23,47,17.90
2019,07,03,23,48,17.90
2019,07,03,23,49,17.90
2019,07,03,23,50,17.90
2019,07,03,23,51,17.90
2019,07,03,23,52,17.90
2019,07,03,23,53,17.90
2019,07,03,23,54,17.90
2019,07,03,23,55,17.90
2019,07,03,23,56,17.90
2019,07,03,23,57,17.90
2019,07,03,23,58,17.90
2019,07,03,23,59,17.90
